Regional Weather Roundup
Issued by NWS Cleveland, OH

Home | Current Version | Previous Version | Text Only | Print | Product List | Glossary Off
Versions: 1 2 3 4 5 6 7 8 9 10 11 12 13 14 15 16 17 18 19 20 21 22 23 24 25 26 27 28 29 30 31 32 33 34 35 36 37 38 39 40 41 42 43 44 45 46 47 48 49 50

000
ASUS41 KCLE 022102
RWRCLE
OHIO REGIONAL WEATHER ROUNDUP
NATIONAL WEATHER SERVICE CLEVELAND, OH
500 PM EDT THU JUL 02 2015

NOTE: "FAIR" INDICATES FEW OR NO CLOUDS BELOW 12,000 FEET WITH NO
SIGNIFICANT WEATHER AND/OR OBSTRUCTIONS TO VISIBILITY.

OHZ001>008-015>018-024>027-034-035-043-044-022200-
   NORTHWEST OHIO

CITY           SKY/WX    TMP DP  RH WIND       PRES   REMARKS
DEFIANCE       MOSUNNY   75  55  49 E12       29.96F
FINDLAY        PTSUNNY   74  56  53 NE13G22   29.94F
TOLEDO EXPRESS PTSUNNY   73  53  49 NE12      29.96F
TOLEDO EXEC    SUNNY     71  53  52 E7        29.98F
LIMA           PTSUNNY   74  60  61 E8        29.94F
$$

OHZ009>014-019>023-028>033-038-089-022200-
   NORTHEAST OHIO

CITY           SKY/WX    TMP DP  RH WIND       PRES   REMARKS
CLE-HOPKINS    MOSUNNY   70  55  59 N12       29.99F
CLE-LAKEFRONT  SUNNY     69  59  70 N10       29.97S
CUY CO. ARPT   MOSUNNY   72  55  56 MISG      29.98S
LORAIN-ELYRIA  SUNNY     71  52  50 NE10      29.98F
ASHTABULA      SUNNY     70  55  59 NE7       29.98S
AKRON-CANTON   MOSUNNY   74  56  53 N6        29.94F
WOOSTER        SUNNY     75  59  57 N8        29.95F
MANSFIELD      SUNNY     74  59  59 N14       29.95F
YOUNGSTOWN     PTSUNNY   75  56  51 N9        29.95S
$$

OHZ042-051>053-060>062-070>072-077>081-022200-
  SOUTHWEST OHIO

CITY           SKY/WX    TMP DP  RH WIND       PRES   REMARKS
CINC-COVINGTON PTSUNNY   77  66  68 VRB7      29.87F
CINC-LUNKEN    PTSUNNY   76  68  76 E8        29.87F
HAMILTON       PTSUNNY   78  67  68 E9        29.88F
DAYTON         PTSUNNY   77  64  64 E12       29.92S
WRIGHT-PAT AFB MOSUNNY   76  62  63 NE10      29.91S
DAYTON GENERAL PTSUNNY   75  66  73 NE9       29.89F
WILMINGTON     MOSUNNY   74  64  71 NE9       29.90S HAZE
$$

OHZ036-037-039>041-045>050-054>059-063>069-073>076-082>088-022200-
  CENTRAL AND SOUTHEAST OHIO

CITY           SKY/WX    TMP DP  RH WIND       PRES   REMARKS
COLUMBUS       CLOUDY    72  61  68 E6        29.93S
OSU AIRPORT    PTSUNNY   73  60  63 E7        29.93S
BOLTON FIELD   CLOUDY    72  63  73 NE6       29.94S
RICKENBACK AFB NOT AVBL
NEWARK         PTSUNNY   73  61  65 E6        29.93F
MARION         PTSUNNY   74  61  63 NE15      29.94F
LANCASTER      CLOUDY    71  63  75 NE6       29.94S
ZANESVILLE     NOT AVBL
NEW PHILLY     MOSUNNY   75  58  55 VRB3      29.93F
$$



USA.gov is the U.S. government's official web portal to all federal, state and local government web resources and services.